| time (UTC) | temp F | wind direction | speed knots | gust knots | rain 1hr in | rain 24hr in | rain mn in | humidity % | barometer mb |
| 20260509015315 | 60 | 301 | 0.0 | 0.9 | 0.00 | 0.17 | 0.00 | 94 | 1015.2 |
| 20260509014809 | 60 | 301 | 0.0 | 0.9 | 0.00 | 0.17 | 0.00 | 94 | 1015.1 |
| 20260509014305 | 60 | 301 | 0.0 | 0.9 | 0.00 | 0.17 | 0.00 | 94 | 1015.1 |
| 20260509014019 | 60 | 301 | 0.0 | 0.0 | 0.00 | 0.17 | 0.00 | 94 | 1015.2 |
| 20260509013251 | 60 | 301 | 0.0 | 0.0 | 0.00 | 0.17 | 0.00 | 94 | 1015.2 |
| 20260509012744 | 60 | 301 | 0.0 | 0.9 | 0.00 | 0.17 | 0.00 | 94 | 1015.2 |
| 20260509012238 | 60 | 301 | 0.0 | 0.9 | 0.00 | 0.17 | 0.00 | 94 | 1015.3 |
| 20260509011733 | 60 | 301 | 0.9 | 1.7 | 0.00 | 0.17 | 0.00 | 94 | 1015.3 |
| 20260509011228 | 60 | 301 | 0.9 | 1.7 | 0.00 | 0.17 | 0.00 | 94 | 1015.4 |
| 20260509010721 | 60 | 301 | 0.9 | 0.9 | 0.00 | 0.17 | 0.00 | 94 | 1015.4 |
| 20260509010215 | 60 | 301 | 0.9 | 1.7 | 0.00 | 0.17 | 0.00 | 94 | 1015.4 |
| 20260509005709 | 60 | 301 | 0.9 | 1.7 | 0.00 | 0.17 | 0.00 | 94 | 1015.4 |
| 20260509005652 | 60 | 301 | 0.9 | 1.7 | 0.00 | 0.17 | 0.00 | 94 | 1015.4 |
| 20260509004657 | 60 | 301 | 0.9 | 1.7 | 0.00 | 0.17 | 0.00 | 94 | 1015.4 |
| 20260509004151 | 60 | 301 | 0.0 | 1.7 | 0.00 | 0.17 | 0.00 | 94 | 1015.4 |
| 20260509003645 | 60 | 301 | 0.9 | 2.6 | 0.00 | 0.17 | 0.00 | 94 | 1015.4 |
| 20260509003139 | 60 | 301 | 1.7 | 2.6 | 0.00 | 0.17 | 0.00 | 94 | 1015.5 |
| 20260509002635 | 60 | 301 | 1.7 | 2.6 | 0.00 | 0.17 | 0.00 | 94 | 1015.6 |
| 20260509002127 | 60 | 301 | 1.7 | 2.6 | 0.00 | 0.17 | 0.00 | 94 | 1015.7 |
| 20260509001621 | 60 | 302 | 1.7 | 3.5 | 0.00 | 0.17 | 0.00 | 94 | 1015.7 |
| 20260509001334 | 60 | 301 | 1.7 | 3.5 | 0.00 | 0.17 | 0.00 | 94 | 1015.7 |
| 20260509000609 | 60 | 300 | 0.9 | 2.6 | 0.00 | 0.17 | 0.00 | 94 | 1015.8 |
| 20260509000325 | 60 | 287 | 0.9 | 2.6 | 0.00 | 0.17 | 0.00 | 94 | 1015.8 |
| 20260508235556 | 60 | 257 | 0.9 | 1.7 | 0.00 | 0.17 | 0.00 | 94 | 1015.9 |
| 20260508235051 | 60 | 257 | 0.9 | 1.7 | 0.00 | 0.17 | 0.00 | 94 | 1015.9 |
| 20260508234545 | 60 | 257 | 1.7 | 2.6 | 0.00 | 0.17 | 0.00 | 94 | 1016.0 |
| 20260508234519 | 60 | 257 | 0.9 | 2.6 | 0.00 | 0.17 | 0.00 | 94 | 1016.1 |
| 20260508233753 | 60 | 250 | 0.9 | 1.7 | 0.00 | 0.17 | 0.00 | 94 | 1016.0 |
| 20260508233026 | 60 | 250 | 0.9 | 1.7 | 0.00 | 0.17 | 0.00 | 93 | 1015.9 |
| 20260508232520 | 60 | 250 | 0.9 | 1.7 | 0.00 | 0.17 | 0.00 | 93 | 1015.9 |
| 20260508232015 | 60 | 250 | 0.9 | 2.6 | 0.00 | 0.17 | 0.00 | 93 | 1016.0 |
| 20260508231508 | 60 | 250 | 1.7 | 2.6 | 0.00 | 0.17 | 0.00 | 93 | 1016.1 |
| 20260508231007 | 60 | 245 | 0.9 | 2.6 | 0.00 | 0.17 | 0.00 | 93 | 1016.1 |
| 20260508230457 | 60 | 241 | 0.9 | 1.7 | 0.00 | 0.17 | 0.00 | 93 | 1016.2 |
| 20260508225951 | 60 | 241 | 0.9 | 1.7 | 0.00 | 0.17 | 0.00 | 93 | 1016.2 |
| 20260508225447 | 60 | 252 | 1.7 | 2.6 | 0.00 | 0.17 | 0.00 | 93 | 1016.2 |
| 20260508224940 | 60 | 252 | 1.7 | 2.6 | 0.00 | 0.17 | 0.00 | 93 | 1016.3 |
| 20260508224658 | 60 | 264 | 0.9 | 2.6 | 0.00 | 0.17 | 0.00 | 93 | 1016.3 |
| 20260508223927 | 60 | 250 | 0.9 | 1.7 | 0.00 | 0.17 | 0.00 | 93 | 1016.3 |
| 20260508223421 | 60 | 250 | 0.9 | 1.7 | 0.00 | 0.17 | 0.00 | 93 | 1016.3 |
| 20260508223138 | 60 | 250 | 0.9 | 1.7 | 0.00 | 0.17 | 0.00 | 93 | 1016.3 |
| 20260508222409 | 60 | 250 | 0.9 | 1.7 | 0.00 | 0.17 | 0.00 | 93 | 1016.4 |
| 20260508221903 | 60 | 250 | 0.9 | 1.7 | 0.00 | 0.17 | 0.00 | 93 | 1016.5 |
| 20260508221355 | 60 | 250 | 0.9 | 1.7 | 0.00 | 0.17 | 0.00 | 93 | 1016.5 |
| 20260508220848 | 60 | 247 | 0.0 | 1.7 | 0.00 | 0.17 | 0.00 | 93 | 1016.6 |
| 20260508220345 | 60 | 247 | 0.0 | 1.7 | 0.00 | 0.17 | 0.00 | 93 | 1016.6 |
| 20260508215837 | 60 | 247 | 0.0 | 1.7 | 0.00 | 0.17 | 0.00 | 93 | 1016.6 |
| 20260508215553 | 60 | 247 | 0.9 | 1.7 | 0.00 | 0.17 | 0.00 | 93 | 1016.5 |
| 20260508214825 | 60 | 246 | 0.9 | 1.7 | 0.00 | 0.17 | 0.00 | 93 | 1016.5 |
| 20260508214318 | 60 | 246 | 0.9 | 2.6 | 0.00 | 0.17 | 0.00 | 93 | 1016.5 |
| 20260508213812 | 60 | 247 | 0.9 | 2.6 | 0.00 | 0.17 | 0.00 | 93 | 1016.5 |
| 20260508213307 | 60 | 246 | 0.9 | 2.6 | 0.00 | 0.17 | 0.00 | 93 | 1016.5 |
| 20260508212800 | 60 | 246 | 0.9 | 2.6 | 0.00 | 0.17 | 0.00 | 93 | 1016.6 |
| 20260508212255 | 60 | 246 | 0.9 | 2.6 | 0.00 | 0.17 | 0.00 | 93 | 1016.5 |
| 20260508212016 | 60 | 245 | 0.9 | 2.6 | 0.00 | 0.17 | 0.00 | 93 | 1016.6 |
| 20260508211242 | 60 | 245 | 0.9 | 3.5 | 0.00 | 0.17 | 0.00 | 93 | 1016.6 |
| 20260508211007 | 60 | 242 | 1.7 | 3.5 | 0.00 | 0.17 | 0.00 | 93 | 1016.7 |
| 20260508210458 | 60 | 256 | 0.9 | 2.6 | 0.00 | 0.17 | 0.00 | 92 | 1016.9 |
| 20260508205727 | 60 | 308 | 0.9 | 1.7 | 0.00 | 0.17 | 0.17 | 93 | 1016.7 |
| 20260508205656 | 60 | 308 | 0.9 | 1.7 | 0.00 | 0.17 | 0.17 | 93 | 1016.9 |
| 20260508204934 | 60 | 310 | 0.9 | 3.5 | 0.00 | 0.17 | 0.17 | 93 | 1016.9 |
| 20260508204207 | 60 | 310 | 1.7 | 3.5 | 0.00 | 0.17 | 0.17 | 93 | 1016.7 |
| 20260508203701 | 60 | 259 | 0.9 | 2.6 | 0.00 | 0.17 | 0.17 | 93 | 1016.9 |
| 20260508203154 | 60 | 265 | 1.7 | 3.5 | 0.00 | 0.17 | 0.17 | 93 | 1016.6 |
| 20260508202649 | 60 | 263 | 0.9 | 3.5 | 0.00 | 0.17 | 0.17 | 93 | 1016.9 |
| 20260508202143 | 60 | 238 | 0.9 | 2.6 | 0.00 | 0.17 | 0.17 | 92 | 1016.7 |
| 20260508201637 | 60 | 275 | 1.7 | 3.5 | 0.00 | 0.17 | 0.17 | 92 | 1016.6 |
| 20260508201131 | 60 | 268 | 1.7 | 3.5 | 0.00 | 0.17 | 0.17 | 92 | 1017.0 |
| 20260508200625 | 60 | 283 | 1.7 | 4.3 | 0.00 | 0.17 | 0.17 | 92 | 1016.7 |
| 20260508200118 | 60 | 282 | 1.7 | 4.3 | 0.00 | 0.17 | 0.17 | 92 | 1017.1 |
| 20260508195612 | 60 | 276 | 1.7 | 4.3 | 0.00 | 0.17 | 0.17 | 92 | 1016.9 |
| 20260508195107 | 61 | 300 | 1.7 | 4.3 | 0.00 | 0.17 | 0.17 | 92 | 1016.9 |
| 20260508194601 | 61 | 273 | 1.7 | 4.3 | 0.00 | 0.17 | 0.17 | 92 | 1016.9 |
| 20260508194056 | 61 | 271 | 1.7 | 4.3 | 0.00 | 0.17 | 0.17 | 92 | 1017.0 |
| 20260508193549 | 61 | 281 | 1.7 | 4.3 | 0.00 | 0.17 | 0.17 | 92 | 1016.7 |
| 20260508193043 | 61 | 310 | 1.7 | 3.5 | 0.00 | 0.17 | 0.17 | 92 | 1016.6 |
| 20260508192537 | 61 | 310 | 0.9 | 3.5 | 0.00 | 0.17 | 0.17 | 92 | 1016.5 |
| 20260508192030 | 61 | 274 | 0.9 | 2.6 | 0.00 | 0.17 | 0.17 | 92 | 1016.5 |
| 20260508191525 | 61 | 274 | 0.9 | 1.7 | 0.00 | 0.17 | 0.17 | 92 | 1016.5 |
| 20260508191019 | 61 | 274 | 0.9 | 2.6 | 0.00 | 0.17 | 0.17 | 92 | 1016.5 |
| 20260508190513 | 61 | 274 | 0.9 | 2.6 | 0.00 | 0.17 | 0.17 | 92 | 1016.5 |
| 20260508190007 | 61 | 274 | 0.9 | 2.6 | 0.00 | 0.17 | 0.17 | 92 | 1016.5 |
| 20260508185500 | 61 | 274 | 1.7 | 2.6 | 0.00 | 0.17 | 0.17 | 92 | 1016.4 |
| 20260508184955 | 61 | 277 | 1.7 | 3.5 | 0.00 | 0.17 | 0.17 | 92 | 1016.4 |
| 20260508184449 | 61 | 308 | 1.7 | 3.5 | 0.00 | 0.17 | 0.17 | 92 | 1016.1 |
| 20260508183943 | 61 | 303 | 1.7 | 4.3 | 0.00 | 0.17 | 0.17 | 91 | 1016.0 |
| 20260508183437 | 61 | 264 | 1.7 | 4.3 | 0.00 | 0.17 | 0.17 | 91 | 1016.1 |
| 20260508183147 | 61 | 282 | 2.6 | 5.2 | 0.00 | 0.17 | 0.17 | 91 | 1016.1 |
| 20260508182650 | 61 | 293 | 2.6 | 5.2 | 0.00 | 0.17 | 0.17 | 91 | 1016.2 |
| 20260508181918 | 61 | 269 | 2.6 | 5.2 | 0.00 | 0.17 | 0.17 | 91 | 1016.1 |
| 20260508181413 | 61 | 274 | 2.6 | 6.1 | 0.00 | 0.17 | 0.17 | 91 | 1015.8 |
| 20260508180906 | 61 | 286 | 2.6 | 6.1 | 0.00 | 0.17 | 0.17 | 91 | 1015.9 |
| 20260508180401 | 61 | 250 | 2.6 | 5.2 | 0.00 | 0.17 | 0.17 | 91 | 1015.9 |
| 20260508175854 | 61 | 276 | 2.6 | 5.2 | 0.00 | 0.17 | 0.17 | 92 | 1015.8 |
| 20260508175348 | 61 | 287 | 1.7 | 4.3 | 0.00 | 0.17 | 0.17 | 92 | 1015.7 |
| 20260508174843 | 61 | 288 | 1.7 | 3.5 | 0.00 | 0.17 | 0.17 | 92 | 1015.5 |
| 20260508174337 | 61 | 290 | 1.7 | 4.3 | 0.00 | 0.17 | 0.17 | 92 | 1015.5 |
| 20260508173831 | 61 | 307 | 1.7 | 4.3 | 0.00 | 0.17 | 0.17 | 91 | 1015.5 |
| 20260508173327 | 61 | 309 | 1.7 | 4.3 | 0.00 | 0.17 | 0.17 | 91 | 1015.5 |
| 20260508172826 | 61 | 266 | 1.7 | 4.3 | 0.00 | 0.17 | 0.17 | 91 | 1015.5 |
| 20260508172327 | 61 | 326 | 2.6 | 4.3 | 0.00 | 0.17 | 0.17 | 91 | 1015.4 |
| 20260508171825 | 61 | 283 | 2.6 | 5.2 | 0.00 | 0.17 | 0.17 | 90 | 1015.4 |
| 20260508171325 | 61 | 281 | 2.6 | 5.2 | 0.00 | 0.17 | 0.17 | 90 | 1015.4 |
| 20260508171042 | 61 | 293 | 2.6 | 4.3 | 0.00 | 0.17 | 0.17 | 90 | 1015.4 |
| 20260508170323 | 61 | 281 | 2.6 | 5.2 | 0.00 | 0.17 | 0.17 | 90 | 1015.3 |
| 20260508165820 | 62 | 277 | 1.7 | 5.2 | 0.00 | 0.17 | 0.17 | 89 | 1015.3 |
| 20260508165319 | 62 | 266 | 1.7 | 5.2 | 0.00 | 0.17 | 0.17 | 90 | 1015.4 |
| 20260508164818 | 62 | 236 | 1.7 | 4.3 | 0.00 | 0.17 | 0.17 | 90 | 1015.4 |
| 20260508164806 | 62 | 277 | 1.7 | 4.3 | 0.00 | 0.17 | 0.17 | 90 | 1015.4 |
| 20260508164049 | 62 | 256 | 1.7 | 5.2 | 0.00 | 0.17 | 0.17 | 90 | 1015.4 |
| 20260508163319 | 62 | 257 | 1.7 | 5.2 | 0.00 | 0.17 | 0.17 | 90 | 1015.4 |
| 20260508162818 | 62 | 255 | 1.7 | 3.5 | 0.00 | 0.17 | 0.17 | 90 | 1015.4 |
| 20260508162319 | 62 | 288 | 1.7 | 4.3 | 0.00 | 0.17 | 0.17 | 89 | 1015.3 |
| 20260508161819 | 62 | 266 | 1.7 | 4.3 | 0.00 | 0.17 | 0.17 | 89 | 1015.3 |
| 20260508161319 | 62 | 305 | 0.9 | 3.5 | 0.00 | 0.17 | 0.17 | 88 | 1015.1 |
| 20260508160818 | 62 | 257 | 1.7 | 4.3 | 0.00 | 0.17 | 0.17 | 88 | 1015.3 |
| 20260508160542 | 62 | 227 | 1.7 | 4.3 | 0.00 | 0.17 | 0.17 | 88 | 1015.4 |
| 20260508160039 | 62 | 270 | 0.9 | 2.6 | 0.00 | 0.17 | 0.17 | 87 | 1015.5 |
| 20260508155319 | 62 | 271 | 0.9 | 2.6 | 0.00 | 0.17 | 0.17 | 87 | 1015.2 |
| 20260508154819 | 62 | 271 | 0.9 | 1.7 | 0.00 | 0.17 | 0.17 | 87 | 1015.2 |
| 20260508154318 | 62 | 271 | 0.9 | 1.7 | 0.00 | 0.17 | 0.17 | 86 | 1015.1 |
| 20260508153818 | 63 | 271 | 0.9 | 2.6 | 0.00 | 0.17 | 0.17 | 86 | 1015.2 |
| 20260508153318 | 63 | 271 | 0.9 | 2.6 | 0.00 | 0.17 | 0.17 | 86 | 1015.3 |
| 20260508152814 | 63 | 271 | 0.9 | 1.7 | 0.00 | 0.17 | 0.17 | 85 | 1015.2 |
| 20260508152314 | 63 | 271 | 0.0 | 0.9 | 0.00 | 0.17 | 0.17 | 84 | 1015.3 |
| 20260508151814 | 63 | 271 | 0.9 | 2.6 | 0.00 | 0.17 | 0.17 | 83 | 1015.3 |
| 20260508151541 | 63 | 271 | 0.9 | 2.6 | 0.00 | 0.17 | 0.17 | 83 | 1015.2 |
| 20260508150815 | 63 | 271 | 0.9 | 2.6 | 0.00 | 0.17 | 0.17 | 83 | 1015.3 |
| 20260508150314 | 63 | 271 | 1.7 | 2.6 | 0.00 | 0.17 | 0.17 | 82 | 1015.4 |
| 20260508145815 | 63 | 271 | 0.9 | 4.3 | 0.00 | 0.17 | 0.17 | 83 | 1015.2 |
| 20260508145315 | 63 | 284 | 1.7 | 4.3 | 0.00 | 0.17 | 0.17 | 83 | 1015.2 |
| 20260508144812 | 63 | 281 | 1.7 | 4.3 | 0.00 | 0.17 | 0.17 | 84 | 1015.5 |
| 20260508144532 | 63 | 261 | 2.6 | 4.3 | 0.00 | 0.17 | 0.17 | 84 | 1015.5 |
| 20260508143800 | 63 | 297 | 1.7 | 3.5 | 0.00 | 0.17 | 0.17 | 84 | 1015.2 |
| 20260508143254 | 63 | 267 | 1.7 | 3.5 | 0.00 | 0.17 | 0.17 | 85 | 1015.2 |
| 20260508142755 | 63 | 284 | 1.7 | 4.3 | 0.00 | 0.17 | 0.17 | 85 | 1015.2 |
| 20260508142252 | 63 | 253 | 1.7 | 4.3 | 0.00 | 0.17 | 0.17 | 85 | 1015.5 |
| 20260508141752 | 63 | 272 | 1.7 | 2.6 | 0.00 | 0.17 | 0.17 | 84 | 1015.4 |
| 20260508141253 | 63 | 276 | 1.7 | 2.6 | 0.00 | 0.17 | 0.17 | 84 | 1015.2 |
| 20260508140752 | 63 | 275 | 1.7 | 2.6 | 0.00 | 0.17 | 0.17 | 84 | 1015.2 |
| 20260508140252 | 63 | 275 | 1.7 | 3.5 | 0.00 | 0.17 | 0.17 | 84 | 1015.3 |
| 20260508135750 | 63 | 275 | 1.7 | 3.5 | 0.00 | 0.17 | 0.17 | 84 | 1015.4 |
| 20260508135513 | 63 | 276 | 0.9 | 2.6 | 0.00 | 0.17 | 0.17 | 84 | 1015.4 |
| 20260508134747 | 63 | 266 | 1.7 | 4.3 | 0.00 | 0.17 | 0.17 | 84 | 1015.4 |
| 20260508134244 | 63 | 309 | 2.6 | 4.3 | 0.00 | 0.17 | 0.17 | 83 | 1015.4 |
| 20260508134012 | 63 | 323 | 1.7 | 4.3 | 0.00 | 0.17 | 0.17 | 83 | 1015.6 |
| 20260508133245 | 63 | 306 | 1.7 | 4.3 | 0.00 | 0.17 | 0.17 | 84 | 1015.6 |
| 20260508132743 | 63 | 305 | 2.6 | 6.1 | 0.00 | 0.17 | 0.17 | 85 | 1015.7 |
| 20260508132242 | 63 | 280 | 2.6 | 6.1 | 0.00 | 0.17 | 0.17 | 85 | 1015.6 |
| 20260508131743 | 63 | 300 | 2.6 | 5.2 | 0.00 | 0.17 | 0.17 | 87 | 1015.8 |
| 20260508131241 | 63 | 278 | 2.6 | 5.2 | 0.00 | 0.17 | 0.17 | 87 | 1015.8 |
| 20260508130738 | 63 | 292 | 1.7 | 5.2 | 0.00 | 0.17 | 0.17 | 88 | 1015.8 |
| 20260508130237 | 62 | 307 | 2.6 | 5.2 | 0.00 | 0.17 | 0.17 | 88 | 1015.9 |
| 20260508125735 | 62 | 256 | 2.6 | 5.2 | 0.00 | 0.17 | 0.17 | 88 | 1016.0 |
| 20260508125228 | 62 | 289 | 1.7 | 3.5 | 0.00 | 0.17 | 0.17 | 89 | 1016.0 |
| 20260508124722 | 62 | 282 | 0.9 | 3.5 | 0.00 | 0.17 | 0.17 | 89 | 1016.1 |
| 20260508124216 | 62 | 271 | 0.9 | 2.6 | 0.00 | 0.17 | 0.17 | 90 | 1016.2 |
| 20260508123935 | 62 | 257 | 0.9 | 2.6 | 0.01 | 0.17 | 0.17 | 90 | 1016.2 |
| 20260508123204 | 62 | 246 | 0.9 | 2.6 | 0.02 | 0.17 | 0.17 | 90 | 1016.2 |
| 20260508122923 | 62 | 259 | 0.9 | 2.6 | 0.03 | 0.17 | 0.17 | 90 | 1016.2 |
| 20260508122152 | 62 | 259 | 0.9 | 2.6 | 0.04 | 0.17 | 0.17 | 91 | 1016.3 |
| 20260508121647 | 62 | 252 | 1.7 | 2.6 | 0.05 | 0.17 | 0.17 | 91 | 1016.4 |
| 20260508121145 | 62 | 259 | 0.9 | 2.6 | 0.05 | 0.17 | 0.17 | 90 | 1016.3 |
| 20260508120630 | 62 | 278 | 0.9 | 2.6 | 0.06 | 0.17 | 0.17 | 90 | 1016.5 |
| 20260508120607 | 62 | 295 | 0.9 | 2.6 | 0.07 | 0.17 | 0.17 | 90 | 1016.5 |
| 20260508115618 | 63 | 301 | 0.9 | 2.6 | 0.08 | 0.17 | 0.17 | 90 | 1016.6 |
| 20260508115112 | 63 | 289 | 0.9 | 2.6 | 0.09 | 0.17 | 0.17 | 89 | 1016.7 |
| 20260508114607 | 63 | 217 | 0.0 | 1.7 | 0.10 | 0.17 | 0.17 | 89 | 1016.9 |
| 20260508114320 | 63 | 217 | 0.0 | 0.9 | 0.10 | 0.16 | 0.17 | 89 | 1017.0 |
| 20260508113554 | 63 | 217 | 0.0 | 0.9 | 0.11 | 0.16 | 0.16 | 88 | 1017.2 |
| 20260508113048 | 63 | 217 | 0.0 | 0.9 | 0.10 | 0.15 | 0.15 | 87 | 1017.3 |
| 20260508112542 | 63 | 217 | 0.0 | 0.9 | 0.09 | 0.13 | 0.13 | 87 | 1017.3 |
| 20260508112035 | 63 | 217 | 0.0 | 0.9 | 0.09 | 0.13 | 0.13 | 87 | 1017.4 |
| 20260508111757 | 63 | 217 | 0.0 | 0.9 | 0.08 | 0.12 | 0.12 | 87 | 1017.4 |
| 20260508111024 | 63 | 217 | 0.0 | 0.9 | 0.08 | 0.11 | 0.12 | 87 | 1017.4 |
| 20260508110518 | 64 | 217 | 0.0 | 0.0 | 0.07 | 0.10 | 0.11 | 89 | 1017.5 |
| 20260508110012 | 64 | 217 | 0.0 | 0.9 | 0.07 | 0.09 | 0.09 | 89 | 1017.6 |
| 20260508105506 | 64 | 217 | 0.0 | 0.9 | 0.06 | 0.08 | 0.09 | 89 | 1017.6 |
| 20260508105223 | 64 | 217 | 0.0 | 1.7 | 0.06 | 0.07 | 0.07 | 89 | 1017.7 |
| 20260508104454 | 64 | 217 | 0.0 | 1.7 | 0.05 | 0.07 | 0.06 | 89 | 1017.8 |
| 20260508103947 | 64 | 217 | 0.0 | 1.7 | 0.05 | 0.06 | 0.06 | 90 | 1017.9 |
| 20260508103442 | 64 | 217 | 0.0 | 1.7 | 0.04 | 0.06 | 0.05 | 90 | 1017.9 |
| 20260508102937 | 63 | 217 | 0.9 | 2.6 | 0.05 | 0.06 | 0.05 | 89 | 1018.0 |
| 20260508102430 | 63 | 217 | 0.9 | 2.6 | 0.05 | 0.06 | 0.05 | 89 | 1018.1 |
| 20260508102148 | 63 | 217 | 0.9 | 1.7 | 0.04 | 0.05 | 0.04 | 88 | 1018.2 |
| 20260508101418 | 64 | 217 | 0.0 | 1.7 | 0.03 | 0.04 | 0.03 | 88 | 1018.1 |
| 20260508100911 | 63 | 217 | 0.0 | 0.9 | 0.03 | 0.04 | 0.03 | 88 | 1018.1 |
| 20260508100406 | 64 | 217 | 0.0 | 2.6 | 0.03 | 0.04 | 0.03 | 87 | 1018.3 |
| 20260508095900 | 64 | 217 | 0.9 | 2.6 | 0.02 | 0.03 | 0.02 | 88 | 1018.5 |
| 20260508095357 | 64 | 143 | 0.9 | 2.6 | 0.02 | 0.03 | 0.02 | 87 | 1018.7 |
| 20260508094847 | 65 | 224 | 0.0 | 1.7 | 0.02 | 0.02 | 0.02 | 87 | 1018.7 |
| 20260508094342 | 65 | 224 | 0.9 | 3.5 | 0.02 | 0.02 | 0.02 | 88 | 1018.7 |
| 20260508093836 | 65 | 222 | 0.9 | 3.5 | 0.01 | 0.02 | 0.01 | 87 | 1018.7 |
| 20260508093330 | 64 | 221 | 0.9 | 2.6 | 0.00 | 0.01 | 0.01 | 87 | 1018.8 |
| 20260508092824 | 64 | 206 | 0.9 | 2.6 | 0.00 | 0.01 | 0.00 | 86 | 1018.7 |
| 20260508092317 | 64 | 259 | 0.9 | 3.5 | 0.00 | 0.01 | 0.00 | 86 | 1018.6 |
| 20260508091812 | 64 | 214 | 1.7 | 4.3 | 0.00 | 0.01 | 0.00 | 85 | 1018.6 |
| 20260508091306 | 64 | 203 | 2.6 | 5.2 | 0.00 | 0.01 | 0.00 | 85 | 1018.5 |
| 20260508090800 | 65 | 211 | 1.7 | 5.2 | 0.00 | 0.01 | 0.00 | 84 | 1018.5 |
| 20260508090257 | 65 | 253 | 1.7 | 4.3 | 0.00 | 0.01 | 0.00 | 83 | 1018.4 |
| 20260508090035 | 65 | 221 | 0.9 | 4.3 | 0.00 | 0.01 | 0.00 | 82 | 1018.3 |
| 20260508085254 | 65 | 224 | 0.9 | 1.7 | 0.00 | 0.01 | 0.00 | 81 | 1018.1 |
| 20260508084754 | 65 | 224 | 0.0 | 1.7 | 0.00 | 0.01 | 0.00 | 81 | 1018.0 |
| 20260508084254 | 65 | 209 | 0.9 | 2.6 | 0.00 | 0.01 | 0.00 | 81 | 1018.0 |
| 20260508084017 | 65 | 209 | 1.7 | 6.1 | 0.00 | 0.01 | 0.00 | 81 | 1018.0 |
| 20260508083513 | 65 | 165 | 1.7 | 6.1 | 0.00 | 0.01 | 0.00 | 80 | 1018.0 |
| 20260508082754 | 66 | 272 | 0.9 | 4.3 | 0.00 | 0.01 | 0.00 | 78 | 1017.9 |
| 20260508082255 | 66 | 244 | 0.0 | 4.3 | 0.00 | 0.01 | 0.00 | 76 | 1017.8 |
| 20260508081753 | 66 | 258 | 0.9 | 4.3 | 0.00 | 0.01 | 0.00 | 76 | 1017.7 |
| 20260508081516 | 66 | 258 | 1.7 | 5.2 | 0.00 | 0.01 | 0.00 | 76 | 1017.6 |
| 20260508080749 | 66 | 255 | 0.9 | 5.2 | 0.00 | 0.01 | 0.00 | 75 | 1017.5 |
| 20260508080247 | 67 | 105 | 0.9 | 2.6 | 0.00 | 0.01 | 0.00 | 71 | 1017.4 |
| 20260508075746 | 67 | 105 | 0.9 | 2.6 | 0.00 | 0.01 | 0.00 | 72 | 1017.2 |
| 20260508075503 | 66 | 105 | 0.9 | 4.3 | 0.00 | 0.01 | 0.00 | 73 | 1017.1 |
| 20260508074739 | 66 | 106 | 1.7 | 4.3 | 0.00 | 0.01 | 0.00 | 74 | 1017.1 |
| 20260508074240 | 66 | 68 | 1.7 | 5.2 | 0.00 | 0.01 | 0.00 | 75 | 1017.1 |
| 20260508073741 | 66 | 93 | 1.7 | 5.2 | 0.00 | 0.01 | 0.00 | 75 | 1017.2 |
| 20260508073240 | 65 | 101 | 1.7 | 5.2 | 0.00 | 0.01 | 0.00 | 76 | 1017.2 |
| 20260508072738 | 65 | 117 | 2.6 | 5.2 | 0.00 | 0.01 | 0.00 | 76 | 1017.2 |
| 20260508072236 | 65 | 90 | 1.7 | 3.5 | 0.00 | 0.01 | 0.00 | 76 | 1017.3 |
| 20260508071737 | 65 | 79 | 0.9 | 1.7 | 0.00 | 0.01 | 0.00 | 76 | 1017.5 |
| 20260508071715 | 65 | 134 | 0.0 | 1.7 | 0.00 | 0.01 | 0.00 | 77 | 1017.7 |
| 20260508070735 | 65 | 134 | 0.9 | 2.6 | 0.00 | 0.01 | 0.00 | 77 | 1017.9 |
| 20260508070454 | 65 | 143 | 0.9 | 2.6 | 0.00 | 0.01 | 0.00 | 78 | 1017.9 |
| 20260508065733 | 65 | 141 | 0.0 | 2.6 | 0.00 | 0.01 | 0.00 | 78 | 1018.0 |
| 20260508065458 | 64 | 94 | 0.0 | 2.6 | 0.00 | 0.01 | 0.00 | 79 | 1017.8 |
| 20260508064727 | 64 | 94 | 0.0 | 2.6 | 0.00 | 0.01 | 0.00 | 79 | 1017.8 |
| 20260508064228 | 64 | 124 | 0.9 | 2.6 | 0.00 | 0.01 | 0.00 | 80 | 1017.7 |
| 20260508063731 | 64 | 138 | 0.9 | 3.5 | 0.00 | 0.01 | 0.00 | 79 | 1017.7 |
| 20260508063230 | 64 | 216 | 0.9 | 3.5 | 0.00 | 0.01 | 0.00 | 79 | 1017.7 |
| 20260508062730 | 64 | 158 | 0.9 | 2.6 | 0.00 | 0.01 | 0.00 | 79 | 1017.6 |
| 20260508062226 | 64 | 163 | 0.9 | 2.6 | 0.00 | 0.01 | 0.00 | 79 | 1017.5 |
| 20260508061727 | 63 | 153 | 0.0 | 1.7 | 0.00 | 0.01 | 0.00 | 78 | 1017.5 |
| 20260508061226 | 63 | 212 | 0.0 | 1.7 | 0.00 | 0.01 | 0.00 | 79 | 1017.3 |
| 20260508060952 | 63 | 212 | 0.9 | 2.6 | 0.00 | 0.01 | 0.00 | 80 | 1017.2 |
| 20260508060225 | 63 | 212 | 0.9 | 2.6 | 0.00 | 0.01 | 0.00 | 81 | 1017.2 |
| 20260508055725 | 63 | 217 | 0.0 | 1.7 | 0.00 | 0.01 | 0.00 | 81 | 1017.2 |
| 20260508055714 | 63 | 101 | 0.0 | 0.9 | 0.00 | 0.01 | 0.00 | 82 | 1017.0 |
| 20260508054725 | 63 | 101 | 0.0 | 1.7 | 0.00 | 0.01 | 0.00 | 82 | 1016.7 |
| 20260508054225 | 62 | 101 | 0.0 | 1.7 | 0.00 | 0.01 | 0.00 | 82 | 1016.6 |
| 20260508053725 | 62 | 101 | 0.0 | 0.9 | 0.00 | 0.01 | 0.00 | 82 | 1016.6 |
| 20260508053225 | 62 | 101 | 0.9 | 1.7 | 0.00 | 0.01 | 0.00 | 83 | 1016.6 |
| 20260508052726 | 62 | 101 | 0.9 | 1.7 | 0.00 | 0.01 | 0.00 | 83 | 1016.6 |
| 20260508052226 | 62 | 101 | 1.7 | 1.7 | 0.00 | 0.01 | 0.00 | 83 | 1016.6 |
| 20260508051945 | 62 | 101 | 0.9 | 2.6 | 0.00 | 0.01 | 0.00 | 83 | 1016.6 |
| 20260508051226 | 62 | 101 | 1.7 | 2.6 | 0.00 | 0.01 | 0.00 | 83 | 1016.7 |
| 20260508050725 | 62 | 101 | 1.7 | 2.6 | 0.00 | 0.01 | 0.00 | 83 | 1016.7 |
| 20260508050226 | 62 | 101 | 0.9 | 2.6 | 0.00 | 0.01 | 0.00 | 83 | 1016.6 |
| 20260508045726 | 62 | 195 | 0.0 | 0.9 | 0.00 | 0.01 | 0.00 | 84 | 1016.6 |
| 20260508045225 | 62 | 195 | 0.0 | 1.7 | 0.00 | 0.01 | 0.00 | 84 | 1016.6 |
| 20260508044724 | 62 | 195 | 0.0 | 2.6 | 0.00 | 0.01 | 0.00 | 84 | 1016.5 |
| 20260508044225 | 62 | 146 | 0.9 | 2.6 | 0.00 | 0.01 | 0.00 | 84 | 1016.5 |
| 20260508043717 | 62 | 228 | 0.9 | 2.6 | 0.00 | 0.01 | 0.00 | 84 | 1016.5 |
| 20260508043211 | 62 | 216 | 0.0 | 1.7 | 0.00 | 0.01 | 0.00 | 84 | 1016.5 |
| 20260508042706 | 62 | 90 | 0.0 | 0.0 | 0.00 | 0.01 | 0.00 | 84 | 1016.3 |
| 20260508042159 | 62 | 90 | 0.0 | 0.0 | 0.00 | 0.01 | 0.00 | 84 | 1016.2 |
| 20260508041657 | 61 | 90 | 0.0 | 0.0 | 0.00 | 0.01 | 0.00 | 84 | 1016.2 |
| 20260508041157 | 61 | 90 | 0.0 | 0.0 | 0.00 | 0.01 | 0.00 | 85 | 1016.1 |
| 20260508040656 | 61 | 90 | 0.0 | 0.9 | 0.00 | 0.01 | 0.00 | 85 | 1016.2 |
| 20260508040155 | 61 | 90 | 0.0 | 1.7 | 0.00 | 0.01 | 0.00 | 84 | 1016.2 |
| 20260508035656 | 61 | 90 | 0.9 | 2.6 | 0.00 | 0.01 | 0.00 | 84 | 1016.2 |
| 20260508035154 | 61 | 90 | 0.9 | 2.6 | 0.00 | 0.01 | 0.00 | 84 | 1016.2 |
| 20260508034651 | 61 | 90 | 0.0 | 1.7 | 0.00 | 0.01 | 0.00 | 84 | 1016.3 |
| 20260508034151 | 61 | 90 | 0.0 | 1.7 | 0.00 | 0.01 | 0.00 | 84 | 1016.4 |
| 20260508033651 | 61 | 90 | 0.0 | 1.7 | 0.00 | 0.01 | 0.00 | 84 | 1016.4 |
| 20260508033150 | 61 | 90 | 0.0 | 0.9 | 0.00 | 0.01 | 0.00 | 84 | 1016.5 |
| 20260508032647 | 60 | 90 | 0.0 | 0.9 | 0.00 | 0.01 | 0.00 | 84 | 1016.5 |
| 20260508032148 | 60 | 90 | 0.0 | 0.9 | 0.00 | 0.01 | 0.00 | 84 | 1016.6 |
| 20260508031647 | 60 | 90 | 0.0 | 0.9 | 0.00 | 0.01 | 0.00 | 84 | 1016.5 |
| 20260508031145 | 60 | 90 | 0.0 | 0.9 | 0.00 | 0.01 | 0.00 | 84 | 1016.4 |
| 20260508030902 | 60 | 90 | 0.0 | 0.9 | 0.00 | 0.01 | 0.00 | 84 | 1016.3 |
| 20260508030144 | 60 | 90 | 0.0 | 0.9 | 0.00 | 0.01 | 0.00 | 84 | 1016.3 |
| 20260508025644 | 60 | 90 | 0.0 | 0.9 | 0.00 | 0.01 | 0.00 | 84 | 1016.3 |
| 20260508025143 | 60 | 90 | 0.0 | 0.9 | 0.00 | 0.01 | 0.00 | 84 | 1016.3 |
| 20260508024642 | 60 | 90 | 0.0 | 0.0 | 0.00 | 0.01 | 0.00 | 83 | 1016.3 |
| 20260508024137 | 61 | 90 | 0.0 | 0.0 | 0.00 | 0.01 | 0.00 | 83 | 1016.3 |
| 20260508023631 | 61 | 90 | 0.0 | 0.0 | 0.00 | 0.01 | 0.00 | 83 | 1016.3 |
| 20260508023125 | 61 | 90 | 0.0 | 0.0 | 0.00 | 0.01 | 0.00 | 83 | 1016.2 |
| 20260508022619 | 61 | 90 | 0.0 | 0.0 | 0.00 | 0.01 | 0.00 | 83 | 1016.1 |
| 20260508022113 | 61 | 90 | 0.0 | 0.0 | 0.00 | 0.01 | 0.00 | 83 | 1016.2 |
| 20260508021607 | 61 | 90 | 0.0 | 0.0 | 0.00 | 0.01 | 0.00 | 83 | 1016.1 |
| 20260508021541 | 62 | 90 | 0.0 | 0.0 | 0.00 | 0.01 | 0.00 | 84 | 1015.9 |
| 20260508020555 | 62 | 90 | 0.0 | 0.0 | 0.00 | 0.01 | 0.00 | 84 | 1016.0 |
| 20260508020049 | 62 | 90 | 0.0 | 0.0 | 0.00 | 0.01 | 0.00 | 83 | 1016.1 |
| 20260508015809 | 62 | 90 | 0.0 | 0.9 | 0.00 | 0.01 | 0.00 | 82 | 1016.0 |